カタログに戻る

SL-8 DEB

運用中LEO
NORAD 21255·DEBRIS·🇷🇺 Russia

打ち上げ Dec 10, 1990 から Plesetsk Cosmodrome

Loading…

次のパス (今後24時間)

TLE

最新Source: Space-Track

元期: Sep 14, 2026, 08:45 UTC

1 21255U 90111C   26257.36511373  .00000987  00000-0  24941-3 0  9995
2 21255  74.0332 228.9096 0012867 345.1020 165.2764 14.52308440878545

AllMySatでSL-8 DEBをリアルタイム追跡

Download on the App Store